Regional Weather Roundup
Issued by NWS Cleveland, OH

Home | Current Version | Previous Version | Graphics & Text | Print | Product List | Glossary On
Versions: 1 2 3 4 5 6 7 8 9 10 11 12 13 14 15 16 17 18 19 20 21 22 23 24 25 26 27 28 29 30 31 32 33 34 35 36 37 38 39 40 41 42 43 44 45 46 47 48 49 50
000
ASUS41 KCLE 180502
RWRCLE
OHIO REGIONAL WEATHER ROUNDUP
NATIONAL WEATHER SERVICE CLEVELAND, OH
100 AM EDT WED OCT 18 2017

NOTE: "FAIR" INDICATES FEW OR NO CLOUDS BELOW 12,000 FEET WITH NO
SIGNIFICANT WEATHER AND/OR OBSTRUCTIONS TO VISIBILITY.

OHZ001>008-015>018-024>027-034-035-043-044-180600-
   NORTHWEST OHIO

CITY           SKY/WX    TMP DP  RH WIND       PRES   REMARKS
DEFIANCE       CLEAR     50  39  66 SW3       30.24R
FINDLAY        CLEAR     48  39  71 S10       30.24F
TOLEDO EXPRESS CLEAR     47  44  90 S3        30.23S
TOLEDO EXEC    CLEAR     50  41  71 S9        30.24S
LIMA           CLEAR     46  40  79 S5        30.26S
$$

OHZ009>014-019>023-028>033-038-089-180600-
   NORTHEAST OHIO

CITY           SKY/WX    TMP DP  RH WIND       PRES   REMARKS
CLE-HOPKINS    PTCLDY    56  38  50 SW10      30.27S
CLE-LAKEFRONT  CLEAR     56  37  49 S9        30.24S
CUY CO. ARPT   NOT AVBL
LORAIN-ELYRIA  CLEAR     47  35  63 S5        30.26S
ASHTABULA      PTCLDY    50  40  68 S7        30.27R
AKRON-CANTON   CLEAR     48  38  68 SW8       30.28S
WOOSTER        CLEAR     39  37  92 CALM      30.29R
MANSFIELD      CLEAR     47  38  71 S5        30.27S
YOUNGSTOWN     PTCLDY    51  39  63 SW6       30.27S
$$

OHZ042-051>053-060>062-070>072-077>081-180600-
  SOUTHWEST OHIO

CITY           SKY/WX    TMP DP  RH WIND       PRES   REMARKS
CINC-COVINGTON CLEAR     43  42  97 S7        30.27F
CINC-LUNKEN    CLEAR     41  41 100 CALM      30.29F FOG
HAMILTON       CLEAR     40  39  97 CALM      30.28F
DAYTON         CLEAR     50  41  71 S6        30.28S
WRIGHT-PAT AFB CLEAR     47  40  77 CALM      30.27S
DAYTON GENERAL CLEAR     48  40  73 S5        30.27S
WILMINGTON     CLEAR     46  41  82 SE3       30.28F
$$

OHZ036-037-039>041-045>050-054>059-063>069-073>076-082>088-180600-
  CENTRAL AND SOUTHEAST OHIO

CITY           SKY/WX    TMP DP  RH WIND       PRES   REMARKS
COLUMBUS       CLEAR     47  42  83 CALM      30.29S
OSU AIRPORT    CLEAR     46  42  86 CALM      30.28S
BOLTON FIELD   CLEAR     44  40  86 CALM      30.29S
RICKENBACK AFB CLEAR     47  40  78 CALM      30.28S
NEWARK         CLEAR     42  39  89 CALM      30.29S
MARION         CLEAR     45  37  73 S6        30.27F
LANCASTER      CLEAR     41  39  93 SE3       30.30S
ZANESVILLE     CLEAR     45  40  82 CALM      30.30S
NEW PHILLY     NOT AVBL
$$




USA.gov is the U.S. government's official web portal to all federal, state and local government web resources and services.